Regional Weather Roundup
Issued by NWS

Home | Current Version | Previous Version | Graphics & Text | Print | Product List | Glossary On
Versions: 1 2 3 4 5 6 7 8 9 10 11 12 13 14 15 16 17 18 19 20 21 22 23 24 25 26 27 28 29 30 31 32 33 34 35 36 37 38 39 40 41 42 43 44 45 46 47 48 49 50
000
ASUS43 KDMX 050203
RWRIA

WEATHER ROUNDUP FOR IOWA
NATIONAL WEATHER SERVICE DES MOINES IA
900 PM CDT WED MAY 04 2016

NOTE: "FAIR" INDICATES FEW OR NO CLOUDS BELOW 12,000 FEET WITH NO
SIGNIFICANT WEATHER AND/OR OBSTRUCTIONS TO VISIBILITY.

* - THESE STATIONS ARE NOT NWS STATIONS...THUS NOT UNDER NWS
QUALITY CONTROL.  THEY ALSO DO NOT REPORT WEATHER SUCH
AS PRECIPITATION OR FOG.

IAZ001>003-012>014-020>022-031>034-043>046-050300-
   NORTHWEST IOWA

CITY           SKY/WX    TMP DP  RH WIND       PRES   REMARKS
CARROLL *      CLEAR     55  39  54 NW8       29.97R
CHEROKEE *     CLEAR     56  37  48 CALM      29.98R
DENISON *      CLEAR     59  37  44 NW6       29.96S
LE MARS *      CLEAR     59  39  47 NW7       30.00R
ORANGE CITY *  CLEAR     63  36  36 N5        29.99S
SHELDON *      CLEAR     55  37  50 N9        29.98R
SIOUX CITY     CLEAR     56  41  57 NW7       30.00R
SPENCER        CLEAR     55  37  50 NW7       29.98R
STORM LAKE *   CLEAR     57  37  47 N9        29.98S
$$

IAZ055>058-069>071-079>083-090>094-050300-
   SOUTHWEST IOWA

CITY           SKY/WX    TMP DP  RH WIND       PRES   REMARKS
ATLANTIC *     CLEAR     59  37  44 NW8       29.98R
AUDUBON *      CLEAR     57  37  47 CALM      29.98S
CLARINDA *       N/A     57  39  51 MISG      30.00R
COUNCIL BLFS * CLEAR     59  39  47 NW6       30.00R
CRESTON *      CLEAR     57  37  47 NW6       29.98S
HARLAN  *      CLEAR     54  39  58 NW9       30.01S
LAMONI         CLEAR     53  39  59 NW7       29.96S
RED OAK *      CLEAR     57  39  51 NW6       29.99R
SHENANDOAH *   CLEAR     61  39  44 NW6       30.00R
$$

IAZ047>049-059>061-072>074-084-050300-
   CENTRAL IOWA

CITY           SKY/WX    TMP DP  RH WIND       PRES   REMARKS
AMES           CLEAR     59  34  39 NW8       29.93S
ANKENY *       CLEAR     59  36  41 NW8       29.93S
BOONE *        CLEAR     59  36  41 NW9       29.94R
CHARITON *     CLEAR     57  36  44 NW8       29.94R
DES MOINES     PTCLDY    61  32  33 NW8       29.94R
GRINNELL*      CLEAR     57  32  38 N8        29.92R
KNOXVILLE *    CLEAR     57  34  41 NW6       29.92R
MARSHALLTOWN   CLEAR     57  31  37 N10       29.92R
NEWTON *       CLEAR     57  34  41 N8        29.92R
PELLA *        CLEAR     54  34  46 NW5       29.93R
PERRY *          N/A     59  37  44 NW7       29.96R
$$

IAZ004>006-015-016-023>025-035-036-050300-
   NORTH CENTRAL IOWA

CITY           SKY/WX    TMP DP  RH WIND       PRES   REMARKS
ALGONA *       CLEAR     57  34  41 N6        29.96R
CLARION *      CLEAR     57  30  35 N8        29.95R
ESTHERVILLE    CLEAR     53  38  56 N8        29.96R
FORT DODGE *   CLEAR     59  34  38 CALM      29.96R
MASON CITY     CLEAR     52  30  43 N9        29.96R
FOREST CITY *    N/A     54  28  37 N5        29.96R
WEBSTER CITY * CLEAR     55  34  44 NW9       29.93R
IOWA FALLS *     N/A     59  30  33 N6        29.94R
$$

IAZ007>011-017>019-026>030-037>042-050>054-066-050300-
   NORTHEAST IOWA

CITY           SKY/WX    TMP DP  RH WIND       PRES   REMARKS
CEDAR RAPIDS   CLEAR     54  35  48 N9        29.90R
CHARLES CITY * CLEAR     55  28  35 N9        29.94R
CLINTON *      CLEAR     50  37  61 NW8       29.88R
DECORAH *      CLEAR     55  27  33 N6        29.92R
DUBUQUE        CLEAR     49  33  54 N9        29.89R
MONTICELLO *   CLEAR     52  36  54 NW5       29.90R
OELWEIN *      CLEAR     54  32  43 N8        29.93R
WATERLOO       CLEAR     53  30  41 N10       29.92R
$$

IAZ064-065-067-068-078-050300-
   EAST CENTRAL IOWA

CITY           SKY/WX    TMP DP  RH WIND       PRES   REMARKS
DAVENPORT      CLEAR     50  35  56 N8        29.88R
IOWA CITY      CLEAR     58  32  37 N7        29.91R
MT. PLEASANT * PTCLDY    59  36  41 N6        29.90R
MUSCATINE *    PTCLDY    57  32  38 N7        29.90R
QUAD CITIES    CLEAR     57  32  38 N6        29.87R
$$

IAZ062-063-075>077-085>089-095>099-050300-
   SOUTHEAST IOWA

CITY           SKY/WX    TMP DP  RH WIND       PRES   REMARKS
BURLINGTON     CLEAR     56  34  43 N6        29.88R
FAIRFIELD *    CLEAR     54  34  47 NW7       29.90S
FORT MADISON * PTCLDY    54  36  50 N6        29.90R
KEOKUK *       CLEAR     59  34  38 NW6       29.89R
OSKALOOSA *      N/A     55  32  41 N7        29.91S
OTTUMWA        CLEAR     51  34  52 NW9       29.91R
WASHINGTON *   PTCLDY    54  36  50 N7        29.91R
$$

ABBREVIATIONS USED IN REMARKS
   TC - TEMPERATURES IN CELSIUS
  WCI - WIND CHILL INDEX
   HX - HEAT INDEX
  VSB - VISIBILITY
$$





USA.gov is the U.S. government's official web portal to all federal, state and local government web resources and services.